• In Hungary
  • List of Countries
  • For 7 days
  • Water Temperature
  • Satellite Maps
  • Weather Map
  • News
  • Weather Widgets
  • user-avatar
    Login

    Hourly Weather Izvarino

    Today, 21 September, Friday

    Time Temperature Precipitation Wind Pressure Humidity
    00:00 +15°C° 0 mm 1 mps 743 mmHg 89%
    01:00 +15°C° 0 mm 1 mps 743 mmHg 90%
    02:00 +15°C° 0 mm 1 mps 743 mmHg 90%
    03:00 +14°C° 0 mm 1 mps 744 mmHg 91%
    04:00 +14°C° 0 mm 1 mps 744 mmHg 92%
    05:00 +14°C° 0 mm 1 mps 744 mmHg 92%
    06:00 +14°C° 0 mm 2 mps 744 mmHg 92%
    07:00 +15°C° 0 mm 2 mps 744 mmHg 87%
    08:00 +17°C° 0 mm 2 mps 745 mmHg 82%
    09:00 +18°C° 0 mm 2 mps 745 mmHg 76%
    10:00 +19°C° 0 mm 2 mps 745 mmHg 70%
    11:00 +21°C° 0 mm 2 mps 745 mmHg 64%
    12:00 +23°C° 0 mm 2 mps 745 mmHg 58%
    13:00 +24°C° 0 mm 2 mps 745 mmHg 56%
    14:00 +25°C° 0 mm 2 mps 745 mmHg 54%
    15:00 +26°C° 0 mm 1 mps 745 mmHg 49%
    16:00 +24°C° 0 mm 1 mps 745 mmHg 54%
    17:00 +23°C° 0 mm 1 mps 745 mmHg 60%
    18:00 +22°C° 0 mm 1 mps 745 mmHg 65%
    19:00 +21°C° 0 mm 1 mps 745 mmHg 69%
    20:00 +19°C° 0 mm 1 mps 745 mmHg 72%
    21:00 +18°C° 0 mm 1 mps 745 mmHg 76%
    22:00 +17°C° 0 mm 2 mps 745 mmHg 78%
    23:00 +17°C° 0 mm 2 mps 745 mmHg 79%

    Tomorrow, 22 September, Saturday

    Time Temperature Precipitation Wind Pressure Humidity
    00:00 +16°C° 0 mm 2 mps 745 mmHg 81%
    01:00 +16°C° 0 mm 2 mps 745 mmHg 82%
    02:00 +16°C° 0 mm 2 mps 745 mmHg 83%
    03:00 +15°C° 0 mm 2 mps 745 mmHg 83%
    04:00 +15°C° 0 mm 2 mps 745 mmHg 84%
    05:00 +15°C° 0 mm 2 mps 745 mmHg 84%
    06:00 +14°C° 0 mm 3 mps 744 mmHg 84%
    07:00 +16°C° 0 mm 3 mps 744 mmHg 80%
    08:00 +18°C° 0 mm 3 mps 744 mmHg 75%
    09:00 +19°C° 0 mm 4 mps 744 mmHg 70%
    10:00 +21°C° 0 mm 4 mps 744 mmHg 66%
    11:00 +22°C° 0 mm 4 mps 744 mmHg 61%
    12:00 +25°C° 0 mm 5 mps 743 mmHg 56%
    13:00 +25°C° 0 mm 5 mps 743 mmHg 55%
    14:00 +26°C° 0 mm 5 mps 743 mmHg 53%
    15:00 +26°C° 0 mm 6 mps 743 mmHg 51%
    16:00 +25°C° 0 mm 5 mps 742 mmHg 56%
    17:00 +23°C° 0 mm 4 mps 742 mmHg 61%
    18:00 +21°C° 0 mm 4 mps 741 mmHg 66%
    19:00 +21°C° 0 mm 4 mps 741 mmHg 66%
    20:00 +20°C° 0 mm 5 mps 741 mmHg 66%
    21:00 +20°C° 0 mm 5 mps 740 mmHg 66%
    22:00 +19°C° 0 mm 5 mps 740 mmHg 64%
    23:00 +19°C° 0 mm 6 mps 739 mmHg 62%

    Day after tomorrow, 23 September, Sunday

    Time Temperature Precipitation Wind Pressure Humidity
    00:00 +19°C° 0 mm 6 mps 739 mmHg 61%
    01:00 +19°C° 0 mm 6 mps 739 mmHg 60%
    02:00 +17°C° 0 mm 6 mps 738 mmHg 60%
    03:00 +17°C° 0 mm 6 mps 738 mmHg 59%
    04:00 +17°C° 0.1 mm 5 mps 738 mmHg 62%
    05:00 +16°C° 0.1 mm 5 mps 737 mmHg 64%
    06:00 +15°C° 0.1 mm 5 mps 737 mmHg 67%
    07:00 +15°C° 0.4 mm 5 mps 737 mmHg 70%
    08:00 +15°C° 0.4 mm 4 mps 737 mmHg 74%
    09:00 +15°C° 0.4 mm 4 mps 737 mmHg 77%
    10:00 +13°C° 1.1 mm 5 mps 737 mmHg 80%
    11:00 +11°C° 1.1 mm 6 mps 737 mmHg 82%
    12:00 +10°C° 1.1 mm 6 mps 737 mmHg 85%
    13:00 +9°C° 0.4 mm 6 mps 737 mmHg 84%
    14:00 +9°C° 0.4 mm 5 mps 738 mmHg 84%
    15:00 +10°C° 0.4 mm 4 mps 738 mmHg 83%
    16:00 +10°C° 0.1 mm 4 mps 738 mmHg 84%
    17:00 +10°C° 0.1 mm 4 mps 738 mmHg 84%
    18:00 +11°C° 0.1 mm 3 mps 739 mmHg 84%
    19:00 +10°C° 0 mm 3 mps 739 mmHg 85%
    20:00 +10°C° 0 mm 3 mps 739 mmHg 87%
    21:00 +10°C° 0 mm 3 mps 739 mmHg 88%
    22:00 +9°C° 0 mm 3 mps 739 mmHg 89%
    23:00 +9°C° 0 mm 3 mps 739 mmHg 90%

    24 September, Monday

    Time Temperature Precipitation Wind Pressure Humidity
    00:00 +8°C° 0 mm 3 mps 738 mmHg 91%
    01:00 +8°C° 0 mm 3 mps 738 mmHg 92%
    02:00 +7°C° 0 mm 3 mps 738 mmHg 93%
    03:00 +7°C° 0 mm 3 mps 738 mmHg 94%
    04:00 +7°C° 0 mm 3 mps 738 mmHg 94%
    05:00 +5°C° 0 mm 3 mps 738 mmHg 94%
    06:00 +5°C° 0 mm 3 mps 738 mmHg 94%
    07:00 +7°C° 0 mm 3 mps 738 mmHg 89%
    08:00 +9°C° 0 mm 3 mps 738 mmHg 83%
    09:00 +10°C° 0 mm 3 mps 738 mmHg 78%
    10:00 +11°C° 0 mm 3 mps 738 mmHg 71%
    11:00 +13°C° 0 mm 4 mps 738 mmHg 64%
    12:00 +14°C° 0 mm 4 mps 738 mmHg 57%
    13:00 +14°C° 0 mm 4 mps 737 mmHg 59%
    14:00 +14°C° 0 mm 4 mps 737 mmHg 60%
    15:00 +14°C° 0 mm 4 mps 736 mmHg 62%
    16:00 +13°C° 0.5 mm 5 mps 735 mmHg 67%
    17:00 +12°C° 0.5 mm 5 mps 734 mmHg 72%
    18:00 +10°C° 0.5 mm 6 mps 733 mmHg 77%
    19:00 +9°C° 2.5 mm 7 mps 732 mmHg 80%
    20:00 +8°C° 2.5 mm 9 mps 730 mmHg 83%
    21:00 +7°C° 2.5 mm 10 mps 729 mmHg 87%
    22:00 +8°C° 1.1 mm 10 mps 727 mmHg 86%
    23:00 +8°C° 1.1 mm 10 mps 726 mmHg 85%

    25 September, Tuesday

    Time Temperature Precipitation Wind Pressure Humidity
    00:00 +9°C° 1.1 mm 10 mps 724 mmHg 84%
    01:00 +8°C° 0.1 mm 10 mps 724 mmHg 83%
    02:00 +7°C° 0.1 mm 10 mps 723 mmHg 81%
    03:00 +7°C° 0.1 mm 10 mps 722 mmHg 80%
    04:00 +7°C° 0.2 mm 10 mps 722 mmHg 80%
    05:00 +6°C° 0.2 mm 10 mps 722 mmHg 80%
    06:00 +6°C° 0.2 mm 10 mps 721 mmHg 80%
    07:00 +6°C° 0.5 mm 10 mps 721 mmHg 82%
    08:00 +6°C° 0.5 mm 9 mps 721 mmHg 83%
    09:00 +6°C° 0.5 mm 9 mps 721 mmHg 85%
    10:00 +6°C° 0.4 mm 9 mps 721 mmHg 85%
    11:00 +6°C° 0.4 mm 8 mps 722 mmHg 85%
    12:00 +7°C° 0.4 mm 8 mps 722 mmHg 86%
    13:00 +6°C° 0.4 mm 9 mps 723 mmHg 85%
    14:00 +6°C° 0.4 mm 9 mps 724 mmHg 83%
    15:00 +6°C° 0.4 mm 10 mps 725 mmHg 82%
    16:00 +6°C° 0.2 mm 10 mps 726 mmHg 82%
    17:00 +5°C° 0.2 mm 10 mps 727 mmHg 81%
    18:00 +5°C° 0.2 mm 10 mps 729 mmHg 80%
    19:00 +5°C° 0 mm 10 mps 730 mmHg 80%
    20:00 +3°C° 0 mm 9 mps 731 mmHg 79%
    21:00 +3°C° 0 mm 9 mps 732 mmHg 78%
    22:00 +4°C° 0 mm 8 mps 732 mmHg 76%
    23:00 +4°C° 0 mm 8 mps 733 mmHg 74%

    26 September, Wednesday

    Time Temperature Precipitation Wind Pressure Humidity
    00:00 +3°C° 0 mm 7 mps 734 mmHg 73%
    01:00 +3°C° 0 mm 7 mps 734 mmHg 73%
    02:00 +2°C° 0 mm 7 mps 735 mmHg 74%
    03:00 0°C° 0 mm 7 mps 736 mmHg 74%
    04:00 0°C° 0 mm 7 mps 736 mmHg 75%
    05:00 +1°C° 0 mm 6 mps 737 mmHg 75%
    06:00 -1°C° 0 mm 6 mps 737 mmHg 76%
    07:00 +1°C° 0 mm 6 mps 738 mmHg 72%
    08:00 +2°C° 0 mm 7 mps 738 mmHg 68%
    09:00 +3°C° 0 mm 7 mps 739 mmHg 65%
    10:00 +4°C° 0 mm 7 mps 739 mmHg 60%
    11:00 +5°C° 0 mm 7 mps 740 mmHg 56%
    12:00 +6°C° 0 mm 7 mps 740 mmHg 51%
    13:00 +8°C° 0 mm 7 mps 741 mmHg 51%
    14:00 +8°C° 0 mm 6 mps 741 mmHg 50%
    15:00 +9°C° 0 mm 6 mps 741 mmHg 50%
    16:00 +8°C° 0 mm 5 mps 742 mmHg 55%
    17:00 +7°C° 0 mm 4 mps 742 mmHg 60%
    18:00 +7°C° 0 mm 3 mps 743 mmHg 65%
    19:00 +5°C° 0 mm 3 mps 743 mmHg 69%
    20:00 +4°C° 0 mm 3 mps 744 mmHg 74%
    21:00 +3°C° 0 mm 3 mps 744 mmHg 78%
    22:00 +3°C° 0 mm 3 mps 745 mmHg 80%
    23:00 +2°C° 0 mm 3 mps 745 mmHg 82%
    Show more